OE2ATN Weather Reports


time (UTC)temp
C
wind
direction
speed
KPH
gust
KPH
rain 1hr
cm
rain 24hr
cm
rain mn
cm
humidity
%
barometer
mb
20260505205506 10 213 0.0 0.0 0.00 0.00 0.00 70 1016.5
20260505205006 10 210 0.0 3.2 0.00 0.00 0.00 69 1016.5
20260505204506 11 165 0.0 3.2 0.00 0.00 0.00 68 1016.4
20260505204007 11 97 0.0 8.0 0.00 0.00 0.00 67 1016.3
20260505203506 11 296 1.6 8.0 0.00 0.00 0.00 68 1016.2
20260505203006 11 285 1.6 3.2 0.00 0.00 0.00 67 1016.1
20260505202508 11 313 0.0 6.4 0.00 0.00 0.00 66 1016.1
20260505202006 11 0 3.2 6.4 0.00 0.00 0.00 67 1016.1
20260505201507 11 292 0.0 6.4 0.00 0.00 0.00 66 1016.0
20260505201006 12 310 1.6 6.4 0.00 0.00 0.00 66 1015.9
20260505200507 11 309 1.6 6.4 0.00 0.00 0.00 67 1015.9
20260505200007 11 299 1.6 4.8 0.00 0.00 0.00 68 1015.9
20260505195507 11 300 0.0 6.4 0.00 0.00 0.00 68 1015.8
20260505195007 11 295 4.8 6.4 0.00 0.00 0.00 68 1015.8
20260505194506 11 303 1.6 6.4 0.00 0.00 0.00 69 1015.7
20260505194007 11 265 1.6 4.8 0.00 0.00 0.00 66 1015.6
20260505193507 12 314 0.0 4.8 0.00 0.00 0.00 66 1015.4
20260505193007 12 307 1.6 4.8 0.00 0.00 0.00 64 1015.3
20260505192508 12 312 0.0 1.6 0.00 0.00 0.00 63 1015.2
20260505192006 13 298 0.0 6.4 0.00 0.00 0.00 62 1015.1
20260505191506 13 316 1.6 8.0 0.00 0.00 0.00 62 1015.2
20260505191005 13 10 1.6 8.0 0.00 0.00 0.00 63 1015.1
20260505190506 13 286 4.8 8.0 0.00 0.00 0.00 62 1015.0
20260505190006 13 314 0.0 11.3 0.00 0.00 0.00 62 1014.9
20260505185506 13 306 3.2 11.3 0.00 0.00 0.00 62 1015.0
20260505185005 13 290 3.2 6.4 0.00 0.00 0.00 60 1014.8
20260505184505 13 314 0.0 4.8 0.00 0.00 0.00 60 1014.8
20260505184006 13 309 1.6 4.8 0.00 0.00 0.00 61 1014.7
20260505183506 13 6 1.6 8.0 0.00 0.00 0.00 62 1014.6
20260505183005 13 283 3.2 8.0 0.00 0.00 0.00 60 1014.5
20260505182505 14 276 1.6 8.0 0.00 0.00 0.00 57 1014.7
20260505182005 14 302 0.0 6.4 0.00 0.00 0.00 59 1014.5
20260505181504 15 296 1.6 6.4 0.00 0.00 0.00 56 1014.4
20260505181005 15 307 1.6 4.8 0.00 0.00 0.00 55 1014.4
20260505180505 15 309 1.6 4.8 0.00 0.00 0.00 54 1014.3
20260505180007 16 305 1.6 4.8 0.00 0.00 0.00 53 1014.3
20260505175504 16 302 3.2 4.8 0.00 0.00 0.00 53 1014.3
20260505175004 16 302 1.6 4.8 0.00 0.00 0.00 52 1014.3
20260505174504 16 329 0.0 4.8 0.00 0.00 0.00 51 1014.3
20260505174004 17 274 1.6 4.8 0.00 0.00 0.00 50 1014.2
20260505173503 17 299 0.0 6.4 0.00 0.00 0.00 50 1014.0
20260505173003 17 34 1.6 6.4 0.00 0.00 0.00 49 1014.2
20260505172504 17 324 1.6 6.4 0.00 0.00 0.00 49 1014.3
20260505172003 18 300 3.2 6.4 0.00 0.00 0.00 46 1014.0
20260505171504 18 305 3.2 6.4 0.00 0.00 0.00 46 1014.0
20260505171004 19 299 1.6 6.4 0.00 0.00 0.00 46 1014.3
20260505170503 19 327 0.0 9.7 0.00 0.00 0.00 45 1014.2
20260505170003 18 97 1.6 14.5 0.00 0.00 0.00 45 1014.2
20260505165503 18 97 3.2 14.5 0.00 0.00 0.00 45 1014.2
20260505165003 18 106 6.4 11.3 0.00 0.00 0.00 46 1014.3
20260505164502 18 134 9.7 11.3 0.00 0.00 0.00 43 1014.2
20260505164003 18 151 6.4 9.7 0.00 0.00 0.00 44 1014.3
20260505163503 19 114 3.2 11.3 0.00 0.00 0.00 45 1014.3
20260505163003 18 82 8.0 14.5 0.00 0.00 0.00 46 1014.4
20260505162502 18 113 8.0 14.5 0.00 0.00 0.00 46 1014.5
20260505162002 18 107 6.4 14.5 0.00 0.00 0.00 47 1014.5
20260505161502 18 135 6.4 14.5 0.00 0.00 0.00 47 1014.7
20260505161003 18 130 9.7 14.5 0.00 0.00 0.00 45 1014.7
20260505160501 18 124 6.4 17.7 0.00 0.00 0.00 46 1014.8
20260505153002 18 113 8.0 11.3 0.00 0.00 0.00 47 1014.8
20260505152501 18 71 6.4 8.0 0.00 0.00 0.00 46 1014.9
20260505152001 18 241 0.0 4.8 0.00 0.00 0.00 44 1014.9
20260505151500 18 295 0.0 9.7 0.00 0.00 0.00 44 1015.0
20260505151000 18 6 1.6 14.5 0.00 0.00 0.00 42 1014.9
20260505150501 18 282 6.4 16.1 0.00 0.00 0.00 43 1014.9
20260505140500 20 199 1.6 9.7 0.00 0.00 0.00 45 1014.4
20260505124958 21 228 3.2 8.0 0.00 0.00 0.00 40 1014.6
20260505124458 20 226 0.0 8.0 0.00 0.00 0.00 40 1014.5
20260505123958 20 100 4.8 17.7 0.00 0.00 0.00 40 1014.4
20260505123458 20 114 11.3 17.7 0.00 0.00 0.00 40 1014.6
20260505122958 20 75 8.0 14.5 0.00 0.00 0.00 39 1014.5
20260505122458 21 121 8.0 11.3 0.00 0.00 0.00 42 1014.4
20260505121957 21 111 6.4 16.1 0.00 0.00 0.00 38 1014.5
20260505121457 21 168 11.3 16.1 0.00 0.00 0.00 38 1014.5
20260505120957 21 118 1.6 16.1 0.00 0.00 0.00 35 1014.5
20260505120457 21 182 3.2 16.1 0.00 0.00 0.00 42 1014.6
20260505115957 21 94 11.3 16.1 0.00 0.00 0.00 38 1014.4
20260505115457 21 128 9.7 14.5 0.00 0.00 0.00 37 1014.5
20260505114957 21 114 8.0 16.1 0.00 0.00 0.00 35 1014.5
20260505114455 21 140 8.0 20.9 0.00 0.00 0.00 36 1014.6
20260505113955 22 127 9.7 20.9 0.00 0.00 0.00 34 1014.6
20260505113455 22 82 9.7 19.3 0.00 0.00 0.00 36 1014.5
20260505112956 22 99 9.7 17.7 0.00 0.00 0.00 35 1014.5
20260505112457 22 161 9.7 17.7 0.00 0.00 0.00 30 1014.6
20260505111956 22 116 9.7 22.5 0.00 0.00 0.00 33 1014.6
20260505111456 22 107 4.8 22.5 0.00 0.00 0.00 33 1014.7
20260505110955 22 109 4.8 19.3 0.00 0.00 0.00 33 1014.7
20260505110456 22 79 9.7 17.7 0.00 0.00 0.00 34 1014.7
20260505101957 21 90 8.0 16.1 0.00 0.00 0.00 35 1015.3
20260505101455 21 107 3.2 17.7 0.00 0.00 0.00 33 1015.4
20260505100954 21 102 8.0 20.9 0.00 0.00 0.00 36 1015.6
20260505100454 21 117 12.9 20.9 0.00 0.00 0.00 39 1015.4
20260505095956 21 114 9.7 17.7 0.00 0.00 0.00 35 1015.6
20260505095455 21 102 6.4 17.7 0.00 0.00 0.00 36 1015.7
20260505094954 21 106 11.3 16.1 0.00 0.00 0.00 35 1015.7
20260505094454 21 103 3.2 16.1 0.00 0.00 0.00 34 1015.7
20260505093954 20 96 9.7 17.7 0.00 0.00 0.00 33 1015.8
20260505093453 21 131 8.0 17.7 0.00 0.00 0.00 36 1015.8
20260505092954 21 66 3.2 11.3 0.00 0.00 0.00 33 1015.8
20260505092453 20 100 6.4 11.3 0.00 0.00 0.00 34 1015.9
20260505091953 20 123 6.4 11.3 0.00 0.00 0.00 34 1015.9
20260505091454 21 116 4.8 11.3 0.00 0.00 0.00 38 1016.0
20260505090953 20 130 4.8 9.7 0.00 0.00 0.00 38 1016.1
20260505090453 20 58 4.8 11.3 0.00 0.00 0.00 38 1016.2
20260505085953 19 93 6.4 14.5 0.00 0.00 0.00 42 1016.2
20260505085453 19 99 8.0 14.5 0.00 0.00 0.00 46 1016.2
20260505084952 18 97 8.0 11.3 0.00 0.00 0.00 53 1016.3
20260505084452 18 147 3.2 8.0 0.00 0.00 0.00 54 1016.3
20260505083953 17 117 0.0 4.8 0.00 0.00 0.00 54 1016.3
20260505083453 17 154 0.0 1.6 0.00 0.00 0.00 54 1016.4
20260505082952 17 149 0.0 1.6 0.00 0.00 0.00 54 1016.6
20260505082452 17 298 0.0 1.6 0.00 0.00 0.00 51 1016.6
20260505081952 16 134 0.0 3.2 0.00 0.00 0.00 52 1016.7
20260505081452 16 154 0.0 4.8 0.00 0.00 0.00 52 1016.9
20260505080952 16 127 0.0 4.8 0.00 0.00 0.00 54 1016.9
20260505080452 16 137 0.0 3.2 0.00 0.00 0.00 55 1017.0
20260505075951 16 94 0.0 0.0 0.00 0.00 0.00 53 1017.0
20260505075451 16 252 0.0 0.0 0.00 0.00 0.00 55 1017.1
20260505074951 15 169 0.0 0.0 0.00 0.00 0.00 55 1017.2
20260505074451 14 168 0.0 3.2 0.00 0.00 0.00 60 1017.2
20260505073951 14 200 0.0 3.2 0.00 0.00 0.00 62 1017.3
20260505073451 13 142 0.0 3.2 0.00 0.00 0.00 61 1017.3
20260505072951 13 151 1.6 8.0 0.00 0.00 0.00 63 1017.4
20260505072451 13 121 1.6 9.7 0.00 0.00 0.00 63 1017.4
20260505071951 13 133 6.4 9.7 0.00 0.00 0.00 61 1017.4
20260505071451 13 152 3.2 8.0 0.00 0.00 0.00 64 1017.5
20260505070950 13 133 0.0 1.6 0.00 0.00 0.00 64 1017.6
20260505070451 13 109 0.0 0.0 0.00 0.00 0.00 63 1017.6
20260505065950 13 134 0.0 0.0 0.00 0.00 0.00 63 1017.7
20260505065450 12 226 0.0 0.0 0.00 0.00 0.00 66 1017.9
20260505064950 12 27 0.0 0.0 0.00 0.00 0.00 63 1017.9
20260505064450 12 127 0.0 0.0 0.00 0.00 0.00 64 1018.0
20260505063950 12 130 0.0 1.6 0.00 0.00 0.00 65 1017.9
20260505063449 12 118 0.0 1.6 0.00 0.00 0.00 67 1018.0
20260505062950 11 244 0.0 0.0 0.00 0.00 0.00 70 1018.1
20260505062449 11 212 0.0 0.0 0.00 0.00 0.00 72 1018.3
20260505061950 11 196 0.0 0.0 0.00 0.00 0.00 72 1018.4
20260505061449 10 196 0.0 0.0 0.00 0.00 0.00 72 1018.3
20260505060949 10 159 0.0 3.2 0.00 0.00 0.00 73 1018.3
20260505060449 10 149 0.0 4.8 0.00 0.00 0.00 73 1018.4
20260505055950 10 113 3.2 4.8 0.00 0.00 0.00 72 1018.4
20260505055449 10 138 0.0 1.6 0.00 0.00 0.00 70 1018.3
20260505054948 11 116 0.0 0.0 0.00 0.00 0.00 71 1018.4
20260505054448 10 275 0.0 0.0 0.00 0.00 0.00 70 1018.4
20260505053948 11 107 0.0 0.0 0.00 0.00 0.00 71 1018.3
20260505053448 10 107 0.0 0.0 0.00 0.00 0.00 75 1018.3
20260505052948 9 106 0.0 0.0 0.00 0.00 0.00 75 1018.3
20260505052448 8 116 0.0 1.6 0.00 0.00 0.00 75 1018.3
20260505051948 8 71 0.0 1.6 0.00 0.00 0.00 75 1018.4
20260505051448 8 82 0.0 1.6 0.00 0.00 0.00 75 1018.4
20260505050948 8 292 0.0 0.0 0.00 0.00 0.00 75 1018.4
20260505050447 7 312 0.0 0.0 0.00 0.00 0.00 75 1018.4
20260505041444 7 293 0.0 3.2 0.00 0.00 0.00 75 1018.4
20260505040945 7 292 1.6 3.2 0.00 0.00 0.00 75 1018.4
20260505040445 7 298 1.6 3.2 0.00 0.00 0.00 75 1018.5
20260505035944 7 288 0.0 1.6 0.00 0.00 0.00 75 1018.4
20260505035445 7 288 0.0 1.6 0.00 0.00 0.00 75 1018.4
20260505034945 7 288 0.0 0.0 0.00 0.00 0.00 75 1018.4
20260505034444 7 288 0.0 3.2 0.00 0.00 0.00 75 1018.4
20260505033944 7 288 0.0 3.2 0.00 0.00 0.00 75 1018.6
20260505033444 7 305 0.0 4.8 0.00 0.00 0.00 75 1018.6
20260505032944 7 11 0.0 4.8 0.00 0.00 0.00 75 1018.5
20260505032444 7 285 1.6 4.8 0.00 0.00 0.00 75 1018.5
20260505031944 7 295 3.2 4.8 0.00 0.00 0.00 75 1018.5
20260505031444 7 289 1.6 4.8 0.00 0.00 0.00 75 1018.6
20260505030944 7 305 0.0 0.0 0.00 0.00 0.00 75 1018.6
20260505030443 7 305 0.0 3.2 0.00 0.00 0.00 75 1018.7
20260505025943 7 305 0.0 4.8 0.00 0.00 0.00 75 1018.7
20260505025442 7 290 1.6 4.8 0.00 0.00 0.00 75 1018.7
20260505024943 7 278 0.0 1.6 0.00 0.00 0.00 75 1018.8
20260505024443 7 329 0.0 3.2 0.00 0.00 0.00 75 1018.8
20260505023943 8 288 0.0 4.8 0.00 0.00 0.00 75 1018.8
20260505023443 7 298 3.2 4.8 0.00 0.00 0.00 75 1018.9
20260505022943 7 313 3.2 4.8 0.00 0.00 0.00 75 1018.8
20260505022443 8 295 0.0 1.6 0.00 0.00 0.00 74 1018.8
20260505021942 8 302 0.0 1.6 0.00 0.00 0.00 74 1018.9
20260505021442 8 302 0.0 4.8 0.00 0.00 0.00 74 1018.9
20260505020943 8 300 0.0 4.8 0.00 0.00 0.00 75 1019.0
20260505020442 8 288 3.2 4.8 0.00 0.00 0.00 75 1019.0
20260505015942 8 298 0.0 1.6 0.00 0.00 0.00 73 1019.0
20260505015442 8 296 0.0 1.6 0.00 0.00 0.00 73 1019.0
20260505014942 8 295 0.0 4.8 0.00 0.00 0.00 74 1019.1
20260505014442 8 295 0.0 4.8 0.00 0.00 0.00 74 1019.1
20260505013942 8 276 0.0 3.2 0.00 0.00 0.00 72 1019.0
20260505013442 8 331 0.0 1.6 0.00 0.00 0.00 73 1019.0
20260505012942 9 93 0.0 0.0 0.00 0.00 0.00 72 1019.0
20260505012440 9 93 0.0 0.0 0.00 0.00 0.00 71 1019.0
20260505011941 9 93 0.0 1.6 0.00 0.00 0.00 71 1019.1
20260505011441 9 93 0.0 1.6 0.00 0.00 0.00 71 1019.1
20260505010940 10 290 0.0 1.6 0.00 0.00 0.00 71 1019.2
20260505010441 10 290 0.0 1.6 0.00 0.00 0.00 71 1019.2
20260505005941 10 290 0.0 1.6 0.00 0.00 0.00 69 1019.1
20260505005440 10 313 0.0 0.0 0.00 0.00 0.00 69 1019.2
20260505004941 10 285 0.0 0.0 0.00 0.00 0.00 69 1019.2
20260505004440 10 285 0.0 1.6 0.00 0.00 0.00 69 1019.2
20260505003941 10 288 0.0 3.2 0.00 0.00 0.00 68 1019.2
20260505003441 10 302 0.0 4.8 0.00 0.00 0.00 67 1019.2
20260505002940 10 321 1.6 4.8 0.00 0.00 0.00 68 1019.3
20260505002440 10 288 1.6 3.2 0.00 0.00 0.00 69 1019.4
20260505001940 10 293 0.0 1.6 0.00 0.00 0.00 69 1019.4
20260505001440 11 300 0.0 1.6 0.00 0.00 0.00 68 1019.4
20260505000940 10 302 0.0 4.8 0.00 0.00 0.00 68 1019.4
20260505000440 10 302 0.0 4.8 0.00 0.00 0.00 68 1019.6
20260504235939 11 295 0.0 1.6 0.00 0.00 0.00 68 1019.6
20260504235439 10 303 0.0 3.2 0.00 0.00 0.00 68 1019.7
20260504234940 10 305 0.0 3.2 0.00 0.00 0.00 68 1019.6
20260504234439 10 285 0.0 3.2 0.00 0.00 0.00 68 1019.7
20260504233939 11 351 0.0 0.0 0.00 0.00 0.00 67 1019.7
20260504233439 11 0 0.0 1.6 0.00 0.00 0.00 67 1019.7
20260504232939 11 0 0.0 3.2 0.00 0.00 0.00 68 1019.8
20260504232439 11 321 0.0 3.2 0.00 0.00 0.00 67 1019.8
20260504231939 11 251 0.0 3.2 0.00 0.00 0.00 67 1019.8
20260504231438 11 295 0.0 1.6 0.00 0.00 0.00 66 1019.9
20260504230938 11 289 0.0 1.6 0.00 0.00 0.00 65 1020.0
20260504230439 11 96 0.0 0.0 0.00 0.00 0.00 64 1019.9
20260504225938 11 97 0.0 1.6 0.00 0.00 0.00 64 1019.9
20260504225438 11 97 0.0 3.2 0.00 0.00 0.00 64 1020.0
20260504224938 12 299 1.6 3.2 0.00 0.00 0.00 64 1020.1
20260504224438 11 355 0.0 1.6 0.00 0.00 0.00 64 1020.0
20260504223938 12 120 0.0 3.2 0.00 0.00 0.00 64 1020.1
20260504223437 12 52 0.0 3.2 0.00 0.00 0.00 62 1020.1
20260504222938 12 290 0.0 3.2 0.00 0.00 0.00 59 1020.1
20260504222438 13 353 0.0 1.6 0.00 0.00 0.00 59 1020.1
20260504221937 13 309 0.0 4.8 0.00 0.00 0.00 56 1020.1
20260504221437 13 312 0.0 4.8 0.00 0.00 0.00 55 1020.1
20260504220937 13 341 1.6 8.0 0.00 0.00 0.00 57 1020.1
20260504220438 13 320 1.6 8.0 0.00 0.00 0.00 59 1020.2
20260504215937 13 299 4.8 8.0 0.00 0.00 0.00 58 1020.2
20260504215437 13 295 1.6 8.0 0.00 0.00 0.00 57 1020.2
20260504214936 13 289 4.8 8.0 0.00 0.00 0.00 58 1020.2
20260504214437 13 298 1.6 6.4 0.00 0.00 0.00 58 1020.2
20260504213937 12 320 3.2 6.4 0.00 0.00 0.00 60 1020.2
20260504213437 13 303 1.6 3.2 0.00 0.00 0.00 59 1020.2
20260504212936 13 338 0.0 1.6 0.00 0.00 0.00 58 1020.3
20260504212436 13 310 0.0 0.0 0.00 0.00 0.00 58 1020.3
20260504211937 13 295 0.0 6.4 0.00 0.00 0.00 58 1020.3
20260504211436 13 295 1.6 6.4 0.00 0.00 0.00 58 1020.3
20260504210936 13 4 0.0 1.6 0.00 0.00 0.00 57 1020.3
20260504210436 13 290 0.0 6.4 0.00 0.00 0.00 57 1020.3
20260504205936 13 314 1.6 6.4 0.00 0.00 0.00 57 1020.4